This is the latest recevied weather packets stored in our database for station/object KC7RJK-2. If no packets are shown the sender has not sent any weather packets the latest 10 day(s).
| Time | Temp. | Humidity | Pressure | Rain* | Wind** | Luminosity | Snow |
|---|---|---|---|---|---|---|---|
| 1777839010 | 25° C | 60% | 1009.9 hPa | 0 mm | - | - | - |
| 1777838412 | 24.44° C | 62% | 1010 hPa | 0 mm | - | - | - |
| 1777837809 | 24.44° C | 61% | 1010.1 hPa | 0 mm | - | - | - |
| 1777837210 | 23.89° C | 59% | 1010.3 hPa | 0 mm | - | - | - |
| 1777836611 | 23.89° C | 61% | 1010.4 hPa | 0 mm | - | - | - |
| 1777836010 | 23.33° C | 63% | 1010.4 hPa | 0 mm | - | - | - |
| 1777835410 | 23.33° C | 64% | 1010.5 hPa | 0 mm | - | - | - |
| 1777834811 | 22.78° C | 68% | 1010.8 hPa | 0 mm | - | - | - |
| 1777834210 | 22.78° C | 67% | 1011 hPa | 0 mm | - | - | - |
| 1777833610 | 22.22° C | 70% | 1011 hPa | 0 mm | - | - | - |
| 1777833009 | 22.22° C | 70% | 1011.1 hPa | 0 mm | - | - | - |
| 1777832409 | 21.67° C | 72% | 1011.2 hPa | 0 mm | - | - | - |
| 1777831808 | 21.11° C | 71% | 1011.3 hPa | 0 mm | - | - | - |
| 1777831209 | 21.11° C | 73% | 1011.4 hPa | 0 mm | - | - | - |
| 1777830611 | 20° C | 74% | 1011.3 hPa | 0 mm | - | - | - |
| 1777830010 | 20° C | 76% | 1011.4 hPa | 0 mm | - | - | - |
| 1777829444 | 19.44° C | 75% | 1011.4 hPa | 0 mm | - | - | - |
| 1777829413 | 19.44° C | 75% | 1011.4 hPa | 0 mm | - | - | - |
| 1777828810 | 18.89° C | 76% | 1011.5 hPa | 0 mm | - | - | - |
| 1777828209 | 18.89° C | 79% | 1011.5 hPa | 0 mm | - | - | - |
| 1777827609 | 18.89° C | 79% | 1011.5 hPa | 0 mm | - | - | - |
| 1777827009 | 18.33° C | 80% | 1011.5 hPa | 0 mm | - | - | - |
| 1777826408 | 17.78° C | 83% | 1011.6 hPa | 0 mm | - | - | - |
| 1777825810 | 17.22° C | 85% | 1011.7 hPa | 0 mm | - | - | - |
| 1777825208 | 16.11° C | 87% | 1011.8 hPa | 0 mm | - | - | - |
* Rain latest hour (hover to see other rain measurements)
** Current wind speed in m/s (hover to see current wind gust speed)